This is the latest recevied weather packets stored in our database for station/object DO1SN-13. If no packets are shown the sender has not sent any weather packets the latest 10 day(s).
| Time | Temp. | Humidity | Pressure | Rain* | Wind** | Luminosity | Snow |
|---|---|---|---|---|---|---|---|
| 1787511223 | 20° C | - | 1024.9 hPa | 0 mm | - | - | - |
| 1787510859 | 21.11° C | - | 1024.7 hPa | 0 mm | - | - | - |
| 1787510495 | 21.67° C | - | 1024.6 hPa | 0 mm | - | - | - |
| 1787510131 | 20.56° C | - | 1024.7 hPa | 0 mm | - | - | - |
| 1787509766 | 21.67° C | - | 1024.7 hPa | 0 mm | - | - | - |
| 1787509402 | 20.56° C | - | 1024.7 hPa | 0 mm | - | - | - |
| 1787509038 | 20.56° C | - | 1024.4 hPa | 0 mm | - | - | - |
| 1787508673 | 21.67° C | - | 1024.5 hPa | 0 mm | - | - | - |
| 1787508309 | 21.67° C | - | 1024.6 hPa | 0 mm | - | - | - |
| 1787507945 | 22.78° C | - | 1024.5 hPa | 0 mm | - | - | - |
| 1787507581 | 22.78° C | - | 1024.5 hPa | 0 mm | - | - | - |
| 1787507217 | 23.33° C | - | 1024.6 hPa | 0 mm | - | - | - |
| 1787506852 | 24.44° C | - | 1024.6 hPa | 0 mm | - | - | - |
| 1787506488 | 24.44° C | - | 1024.7 hPa | 0 mm | - | - | - |
| 1787506124 | 24.44° C | - | 1024.7 hPa | 0 mm | - | - | - |
| 1787505760 | 25° C | - | 1024.5 hPa | 0 mm | - | - | - |
| 1787505396 | 25° C | - | 1024.4 hPa | 0 mm | - | - | - |
| 1787505031 | 25° C | - | 1024.6 hPa | 0 mm | - | - | - |
| 1787504667 | 24.44° C | - | 1024.6 hPa | 0 mm | - | - | - |
| 1787504303 | 24.44° C | - | 1024.6 hPa | 0 mm | - | - | - |
| 1787503939 | 24.44° C | - | 1024.7 hPa | 0 mm | - | - | - |
| 1787503575 | 25° C | - | 1024.7 hPa | 0 mm | - | - | - |
| 1787503211 | 26.11° C | - | 1024.7 hPa | 0 mm | - | - | - |
| 1787502846 | 25.56° C | - | 1024.7 hPa | 0 mm | - | - | - |
| 1787502482 | 25.56° C | - | 1024.7 hPa | 0 mm | - | - | - |
* Rain latest hour (hover to see other rain measurements)
** Current wind speed in m/s (hover to see current wind gust speed)